Location: Ailingen
(47.6833°N, 9.5000°E)
Time: 12:32:53
(UTC+00:00)

SJ-12 - Pass Details

Date: 18 November 2025
Orbit: 517 x 528 km, 97.8° (Epoch: 11 December)

Event Time Altitude Azimuth Distance (km) Brightness Sun altitude
Rises 17:03:30 0° 171° (S) 2,642 7.4 -13.6°
Reaches altitude 10° 17:05:36 10° 174° (S) 1,756 6.5 -13.9°
Maximum altitude 17:09:22 67° 258° (WSW) 569 4.1 -14.6°
Drops below altitude 10° 17:13:10 10° 342° (NNW) 1,765 6.5 -15.2°
Sets 17:15:17 0° 345° (NNW) 2,656 7.4 -15.5°
